Home   Weather   43°31'N, 79°39'W   Past weeks
Flag for Canada

Past Weather in 43°31'N, 79°39'W, Canada — Yesterday and Last 2 Weeks

Now
46 °F

Passing clouds.


Feels Like: 41 °F
Forecast: 58 / 47 °F
Wind: 12 mph from East

Location: Toronto Pearson International Airport

Current Time: Oct 19, 2019 at 8:51:48 pm

Latest Report: Oct 19, 2019 at 8:00 pm


Visibility: 15 mi

Pressure: 29.96 "Hg

Humidity: 87%

Dew Point: 43 °F

Location of 43°31'N, 79°39'WLocation

Past Weather in 43°31'N, 79°39'W — Graph

°F

43°31'N, 79°39'W Temperature Yesterday

Maximum temperature yesterday: 52 °F (at 3:00 pm)
Minimum temperature yesterday: 41 °F (at 10:00 pm)
Average temperature yesterday: 46 °F

High & Low Weather Summary for the Past Weeks

 TemperatureHumidityPressure
High70 °F (Oct 6, 5:00 pm)100% (Oct 11, 6:00 am)30.44 "Hg (Oct 11, 6:00 am)
Low36 °F (Oct 19, 2:37 am)34% (Oct 13, 5:00 pm)29.46 "Hg (Oct 17, 1:00 am)
Average52 °F72%30.03 "Hg
* Reported Oct 4 7:00 pm — Oct 19 7:00 pm, 43°31'N, 79°39'W. Weather by CustomWeather, © 2019

Note: Actual official high and low records may vary slightly from our data, if they occured in-between our weather recording intervals... More about our weather records

Advertising

43°31'N, 79°39'W Weather History for the Previous 24 Hours

Scroll right to see more
 ConditionsComfort  
Time TempWeatherWind HumidityBarometerVisibility
7:00 pm
Sat, Oct 19
48 °FPassing clouds.9 mph82%29.97 "Hg15 mi
6:00 pm50 °FPartly sunny.7 mph71%29.97 "Hg15 mi
5:00 pm50 °FBroken clouds.9 mph71%29.98 "Hg15 mi
4:00 pm52 °FPartly sunny.10 mph67%30.00 "Hg15 mi
3:00 pm52 °FBroken clouds.7 mph67%30.02 "Hg15 mi
2:00 pm52 °FBroken clouds.9 mph72%30.03 "Hg15 mi
1:00 pm54 °FScattered clouds.13 mph63%30.04 "Hg15 mi
12:00 pm52 °FScattered clouds.6 mph67%30.07 "Hg15 mi
11:00 am50 °FPassing clouds.9 mph76%30.09 "Hg15 mi
10:00 am45 °FPassing clouds.10 mph76%30.09 "Hg15 mi
9:00 am39 °FPassing clouds.10 mph87%30.09 "Hg15 mi
8:00 am36 °FPassing clouds.9 mph87%30.09 "Hg15 mi
7:00 am36 °FPassing clouds.9 mph93%30.08 "Hg15 mi
6:05 am36 °FPassing clouds.No wind93%30.08 "Hg15 mi
5:00 am36 °FPassing clouds.No wind93%30.07 "Hg15 mi
4:00 am36 °FClear.3 mph87%30.06 "Hg15 mi
3:00 am37 °FClear.7 mph87%30.07 "Hg15 mi
2:37 am36 °FClear.7 mph93%30.08 "Hg15 mi
2:00 am37 °FClear.7 mph87%30.07 "Hg15 mi
1:00 am39 °FPassing clouds.7 mph87%30.07 "Hg15 mi
12:00 am39 °FPassing clouds.6 mph81%30.08 "Hg15 mi
11:00 pm
Fri, Oct 18
41 °FPassing clouds.8 mph76%30.07 "Hg15 mi
10:00 pm41 °FPassing clouds.8 mph76%30.07 "Hg15 mi
9:00 pm43 °FPassing clouds.10 mph71%30.06 "Hg15 mi
8:00 pm43 °FPassing clouds.9 mph76%30.06 "Hg15 mi
Weather by CustomWeather, © 2019

See weather overview